Location: Unspecified
(0.0000°N, 0.0000°E)
Time: 07:45:42
(UTC+00:00)

Vanguard 2 Rocket - Pass Details

Date: 14 October 2022
Orbit: 555 x 3321 km, 32.9° (Epoch: 06 December)

Event Time Altitude Azimuth Distance (km) Brightness Sun altitude
Rises 22:46:14 0° 314° (NW) 6,984 11.5 -72.9°
Enters shadow 22:51:31 - 326° (NW) 6,055 11.0 -74.0°
Reaches altitude 10° 22:55:26 10° 337° (NNW) 5,407 - -74.9°
Maximum altitude 23:01:51 13° 2° (N) 4,582 - -76.2°
Drops below altitude 10° 23:07:10 10° 28° (NNE) 4,344 - -77.2°
Sets 23:12:42 0° 54° (NE) 4,720 - -78.2°
